EW8254 Weather Reports


Display with metric or nautical units.
time (UTC)temp
F
wind
direction
speed
MPH
gust
MPH
rain 1hr
in
rain 24hr
in
rain mn
in
humidity
%
barometer
mb
20260506221545 74 287 3.0 10.0 0.00 0.00 0.00 52 1014.1
20260506221045 74 283 3.0 8.0 0.00 0.00 0.00 51 1014.2
20260506220542 73 248 2.0 8.0 0.00 0.00 0.00 51 1014.3
20260506220041 73 229 3.0 8.0 0.00 0.00 0.00 52 1014.4
20260506215544 73 227 1.0 10.0 0.00 0.00 0.00 52 1014.4
20260506215039 73 240 1.0 9.0 0.00 0.00 0.00 52 1014.4
20260506214539 74 277 4.0 10.0 0.00 0.00 0.00 50 1014.5
20260506214038 75 200 5.0 10.0 0.00 0.00 0.00 49 1014.6
20260506213537 74 240 0.0 6.0 0.00 0.00 0.00 49 1014.6
20260506213036 74 131 0.0 6.0 0.00 0.00 0.00 50 1014.7
20260506212533 74 246 2.0 6.0 0.00 0.00 0.00 50 1014.8
20260506212035 73 253 0.0 6.0 0.00 0.00 0.00 50 1014.9
20260506211533 73 267 2.0 6.0 0.00 0.00 0.00 50 1014.9
20260506211029 73 166 3.0 6.0 0.00 0.00 0.00 50 1014.9
20260506210528 72 265 1.0 8.0 0.00 0.00 0.00 52 1015.0
20260506210028 71 211 4.0 8.0 0.00 0.00 0.00 52 1015.2
20260506205528 72 277 2.0 7.0 0.00 0.00 0.00 52 1015.1
20260506205026 72 345 0.0 7.0 0.00 0.00 0.00 52 1015.2
20260506204525 72 246 4.0 8.0 0.00 0.00 0.00 52 1015.2
20260506204021 71 12 3.0 7.0 0.00 0.00 0.00 52 1015.3
20260506203520 71 235 3.0 7.0 0.00 0.00 0.00 53 1015.3
20260506203020 71 166 2.0 7.0 0.00 0.00 0.00 53 1015.4
20260506202517 70 330 2.0 5.0 0.00 0.00 0.00 54 1015.5
20260506202016 69 269 1.0 4.0 0.00 0.00 0.00 55 1015.5
20260506201518 69 347 1.0 7.0 0.00 0.00 0.00 55 1015.6
20260506201013 69 332 0.0 7.0 0.00 0.00 0.00 55 1015.8
20260506200517 69 258 0.0 7.0 0.00 0.00 0.00 56 1015.7
20260506200013 69 307 4.0 9.0 0.00 0.00 0.00 55 1015.8
20260506195510 70 256 6.0 9.0 0.00 0.00 0.00 54 1015.8
20260506195009 70 227 2.0 7.0 0.00 0.00 0.00 54 1015.9
20260506194515 70 215 1.0 4.0 0.00 0.00 0.00 55 1015.9
20260506194007 69 118 1.0 5.0 0.00 0.00 0.00 56 1016.0
20260506193505 68 243 0.0 6.0 0.00 0.00 0.00 58 1016.1
20260506193005 67 200 3.0 6.0 0.00 0.00 0.00 57 1016.1
20260506192508 67 307 2.0 6.0 0.00 0.00 0.00 57 1016.2
20260506192002 67 326 1.0 6.0 0.00 0.00 0.00 56 1016.3
20260506191501 68 267 1.0 6.0 0.00 0.00 0.00 57 1016.5
20260506191100 67 160 2.0 6.0 0.00 0.00 0.00 57 1016.5
20260506190559 67 158 0.0 4.0 0.00 0.00 0.00 57 1016.5
20260506185556 66 169 0.0 5.0 0.00 0.00 0.00 60 1016.6
20260506185056 66 97 3.0 5.0 0.00 0.00 0.00 58 1016.6
20260506184555 66 105 3.0 5.0 0.00 0.00 0.00 58 1016.7
20260506184055 67 72 3.0 5.0 0.00 0.00 0.00 57 1016.7
20260506183554 66 154 0.0 3.0 0.00 0.00 0.00 58 1016.7
20260506183052 66 218 0.0 1.0 0.00 0.00 0.00 59 1016.8
20260506182551 65 233 0.0 5.0 0.00 0.00 0.00 59 1016.9
20260506182049 65 211 2.0 5.0 0.00 0.00 0.00 60 1016.9
20260506181548 65 203 2.0 5.0 0.00 0.00 0.00 61 1016.9
20260506181046 63 135 1.0 6.0 0.00 0.00 0.00 62 1016.9
20260506180548 63 176 2.0 6.0 0.00 0.00 0.00 63 1017.0
20260506180055 63 115 2.0 5.0 0.00 0.00 0.00 62 1017.0
20260506175542 63 125 1.0 7.0 0.00 0.00 0.00 64 1017.0
20260506175041 62 121 2.0 7.0 0.00 0.00 0.00 65 1017.0
20260506174544 61 131 1.0 7.0 0.00 0.00 0.00 65 1016.9
20260506174042 61 105 2.0 7.0 0.00 0.00 0.00 65 1016.9
20260506173539 62 109 3.0 8.0 0.00 0.00 0.00 65 1016.9
20260506173039 62 105 4.0 8.0 0.00 0.00 0.00 63 1017.0
20260506172536 62 92 0.0 3.0 0.00 0.00 0.00 64 1017.0
20260506172035 63 120 0.0 3.0 0.00 0.00 0.00 62 1017.0
20260506171534 62 229 0.0 5.0 0.00 0.00 0.00 64 1017.1
20260506171034 61 207 1.0 5.0 0.00 0.00 0.00 66 1017.0
20260506170531 61 93 2.0 4.0 0.00 0.00 0.00 65 1016.9
20260506170030 61 270 0.0 3.0 0.00 0.00 0.00 65 1017.0
20260506165528 61 281 0.0 6.0 0.00 0.00 0.00 65 1016.9
20260506165027 61 215 0.0 6.0 0.00 0.00 0.00 66 1017.0
20260506164529 61 77 3.0 6.0 0.00 0.00 0.00 66 1016.9
20260506164026 61 267 3.0 5.0 0.00 0.00 0.00 65 1017.0
20260506163525 61 145 0.0 3.0 0.00 0.00 0.00 67 1017.0
20260506163048 60 150 0.0 6.0 0.00 0.00 0.00 66 1016.9
20260506162525 59 163 2.0 6.0 0.00 0.00 0.00 67 1017.0
20260506162024 59 163 0.0 3.0 0.00 0.00 0.00 67 1016.9
20260506161521 59 164 1.0 3.0 0.00 0.00 0.00 67 1017.0
20260506161020 59 149 1.0 5.0 0.00 0.00 0.00 68 1017.0
20260506160519 59 190 1.0 5.0 0.00 0.00 0.00 69 1017.0
20260506160020 59 127 1.0 4.0 0.00 0.00 0.00 68 1017.1
20260506155517 59 129 1.0 3.0 0.00 0.00 0.00 69 1017.1
20260506155016 59 140 0.0 5.0 0.00 0.00 0.00 70 1017.1
20260506154515 58 229 1.0 5.0 0.00 0.00 0.00 70 1017.1
20260506154014 58 131 2.0 6.0 0.00 0.00 0.00 71 1017.1
20260506153513 57 120 0.0 6.0 0.00 0.00 0.00 71 1017.2
20260506153013 58 128 1.0 4.0 0.00 0.00 0.00 71 1017.2
20260506152513 57 155 0.0 4.0 0.00 0.00 0.00 71 1017.1
20260506152014 57 135 0.0 3.0 0.00 0.00 0.00 72 1017.1
20260506151511 57 132 0.0 3.0 0.00 0.00 0.00 72 1017.1
20260506151008 56 131 0.0 3.0 0.00 0.00 0.00 72 1017.2
20260506150508 56 135 1.0 2.0 0.00 0.00 0.00 72 1017.2
20260506150007 55 135 0.0 2.0 0.00 0.00 0.00 72 1017.2
20260506145510 55 135 0.0 2.0 0.00 0.00 0.00 72 1017.2
20260506145005 55 132 0.0 2.0 0.00 0.00 0.00 72 1017.2
20260506144504 55 131 0.0 5.0 0.00 0.00 0.00 72 1017.3
20260506144003 55 131 0.0 5.0 0.00 0.00 0.00 72 1017.2
20260506143502 54 153 0.0 4.0 0.00 0.00 0.00 72 1017.2
20260506143001 53 134 1.0 4.0 0.00 0.00 0.00 73 1017.2
20260506142602 0 0.0 0.0 0.00 0.00 0.00 1017.2
20260506142501 0 0.0 0.0 0.00 0.00 0.00 1017.2
20260506142058 0 0.0 0.0 0.00 0.00 0.00 1017.2
20260506141557 0 0.0 0.0 0.00 0.00 0.00 1017.2
20260506141057 0 0.0 0.0 0.00 0.00 0.00 1017.0
20260506140554 0 0.0 0.0 0.00 0.00 0.00 1017.0
20260506140056 0 0.0 0.0 0.00 0.00 0.00 1016.9
20260506135550 0 0.0 0.0 0.00 0.00 0.00 1016.9
20260506135049 0 0.0 0.0 0.00 0.00 0.00 1016.8
20260506134547 0 0.0 0.0 0.00 0.00 0.00 1016.7
20260506134048 0 0.0 0.0 0.00 0.00 0.00 1016.7
20260506133545 0 0.0 0.0 0.00 0.00 0.00 1016.7
20260506133043 0 0.0 0.0 0.00 0.00 0.00 1016.7
20260506132543 0 0.0 0.0 0.00 0.00 0.00 1016.7
20260506132040 0 0.0 0.0 0.00 0.00 0.00 1016.6
20260506131539 0 0.0 0.0 0.00 0.00 0.00 1016.6
20260506131037 0 0.0 0.0 0.00 0.00 0.00 1016.6
20260506130536 0 0.0 0.0 0.00 0.00 0.00 1016.5
20260506130034 0 0.0 0.0 0.00 0.00 0.00 1016.4
20260506125535 0 0.0 0.0 0.00 0.00 0.00 1016.4
20260506125035 0 0.0 0.0 0.00 0.00 0.00 1016.4
20260506124530 0 0.0 0.0 0.00 0.00 0.00 1016.4
20260506124028 0 0.0 0.0 0.00 0.00 0.00 1016.3
20260506123527 0 0.0 0.0 0.00 0.00 0.00 1016.4
20260506123028 0 0.0 0.0 0.00 0.00 0.00 1016.3
20260506122525 0 0.0 0.0 0.00 0.00 0.00 1016.2
20260506122022 0 0.0 0.0 0.00 0.00 0.00 1016.2
20260506121523 0 0.0 0.0 0.00 0.00 0.00 1016.1
20260506121019 0 0.0 0.0 0.00 0.00 0.00 1016.1
20260506120518 0 0.0 0.0 0.00 0.00 0.00 1016.0
20260506120017 0 0.0 0.0 0.00 0.00 0.00 1016.0
20260506115514 0 0.0 0.0 0.00 0.00 0.00 1016.0
20260506115013 0 0.0 0.0 0.00 0.00 0.00 1016.0
20260506114512 0 0.0 0.0 0.00 0.00 0.00 1015.9
20260506114011 0 0.0 0.0 0.00 0.00 0.00 1015.9
20260506113509 0 0.0 0.0 0.00 0.00 0.00 1015.9
20260506113007 0 0.0 0.0 0.00 0.00 0.00 1016.0
20260506112508 0 0.0 0.0 0.00 0.00 0.00 1015.9
20260506112005 0 0.0 0.0 0.00 0.00 0.00 1015.9
20260506111506 0 0.0 0.0 0.00 0.00 0.00 1015.9
20260506111003 0 0.0 0.0 0.00 0.00 0.00 1015.9
20260506110601 0 0.0 0.0 0.00 0.00 0.00 1015.8
20260506110104 0 0.0 0.0 0.00 0.00 0.00 1015.9
20260506105558 0 0.0 0.0 0.00 0.00 0.00 1015.9
20260506105057 0 0.0 0.0 0.00 0.00 0.00 1015.8
20260506104555 0 0.0 0.0 0.00 0.00 0.00 1015.9
20260506104054 0 0.0 0.0 0.00 0.00 0.00 1015.8
20260506103552 0 0.0 0.0 0.00 0.00 0.00 1016.0
20260506103051 0 0.0 0.0 0.00 0.00 0.00 1015.9
20260506102550 0 0.0 0.0 0.00 0.00 0.00 1015.8
20260506102049 0 0.0 0.0 0.00 0.00 0.00 1015.8
20260506101549 0 0.0 0.0 0.00 0.00 0.00 1015.9
20260506101049 0 0.0 0.0 0.00 0.00 0.00 1015.8
20260506100543 0 0.0 0.0 0.00 0.00 0.00 1015.8
20260506100045 0 0.0 0.0 0.00 0.00 0.00 1015.8
20260506095545 0 0.0 0.0 0.00 0.00 0.00 1015.9
20260506095039 0 0.0 0.0 0.00 0.00 0.00 1016.0
20260506094548 0 0.0 0.0 0.00 0.00 0.00 1015.9
20260506094037 0 0.0 0.0 0.00 0.00 0.00 1016.0
20260506093537 0 0.0 0.0 0.00 0.00 0.00 1015.9
20260506093033 0 0.0 0.0 0.00 0.00 0.00 1015.9
20260506092532 0 0.0 0.0 0.00 0.00 0.00 1016.0
20260506092033 0 0.0 0.0 0.00 0.00 0.00 1016.0
20260506091530 0 0.0 0.0 0.00 0.00 0.00 1015.9
20260506091028 0 0.0 0.0 0.00 0.00 0.00 1016.0
20260506090526 0 0.0 0.0 0.00 0.00 0.00 1016.0
20260506090024 0 0.0 0.0 0.00 0.00 0.00 1016.1
20260506085523 0 0.0 0.0 0.00 0.00 0.00 1016.2
20260506085022 0 0.0 0.0 0.00 0.00 0.00 1016.3
20260506084520 0 0.0 0.0 0.00 0.00 0.00 1016.3
20260506084019 0 0.0 0.0 0.00 0.00 0.00 1016.3
20260506083518 0 0.0 0.0 0.00 0.00 0.00 1016.4
20260506083017 0 0.0 0.0 0.00 0.00 0.00 1016.4
20260506082514 0 0.0 0.0 0.00 0.00 0.00 1016.3
20260506082013 0 0.0 0.0 0.00 0.00 0.00 1016.3
20260506081512 0 0.0 0.0 0.00 0.00 0.00 1016.4
20260506081010 0 0.0 0.0 0.00 0.00 0.00 1016.4
20260506080510 0 0.0 0.0 0.00 0.00 0.00 1016.5
20260506073108 0 0.0 0.0 0.00 0.00 0.00 1016.5
20260506072556 0 0.0 0.0 0.00 0.00 0.00 1016.5
20260506072055 0 0.0 0.0 0.00 0.00 0.00 1016.5
20260506071554 0 0.0 0.0 0.00 0.00 0.00 1016.4
20260506071052 0 0.0 0.0 0.00 0.00 0.00 1016.4
20260506070551 0 0.0 0.0 0.00 0.00 0.00 1016.2
20260506062038 0 0.0 0.0 0.00 0.00 0.00 1015.8
20260506061537 0 0.0 0.0 0.00 0.00 0.00 1015.8
20260506061035 0 0.0 0.0 0.00 0.00 0.00 1015.8
20260506060534 0 0.0 0.0 0.00 0.00 0.00 1015.7
20260506051017 0 0.0 0.0 0.00 0.00 0.00 1015.5
20260506050518 0 0.0 0.0 0.00 0.00 0.00 1015.5
20260506045013 51 262 0.0 1.0 0.00 0.00 0.00 74 1015.2
20260506044513 52 262 0.0 2.0 0.00 0.00 0.00 72 1015.2
20260506044016 52 262 0.0 2.0 0.00 0.00 0.00 72 1015.2
20260506043511 51 262 0.0 0.0 0.00 0.00 0.00 72 1015.1
20260506043011 51 262 0.0 0.0 0.00 0.00 0.00 72 1015.1
20260506042512 52 262 0.0 0.0 0.00 0.00 0.00 72 1015.0
20260506042011 52 261 0.0 0.0 0.00 0.00 0.00 72 1014.8
20260506041508 52 262 0.0 0.0 0.00 0.00 0.00 72 1014.8
20260506041012 52 262 0.0 0.0 0.00 0.00 0.00 72 1014.7
20260506040506 52 261 0.0 0.0 0.00 0.00 0.00 72 1014.6
20260506040010 52 262 0.0 0.0 0.00 0.00 0.00 71 1014.6
20260506035505 52 262 0.0 0.0 0.00 0.00 0.00 71 1014.5
20260506035004 52 261 0.0 0.0 0.00 0.00 0.00 71 1014.4
20260506034504 53 262 0.0 0.0 0.00 0.00 0.00 71 1014.4
20260506034004 53 261 0.0 0.0 0.00 0.00 0.00 71 1014.3
20260506033502 53 261 0.0 0.0 0.00 0.00 0.00 71 1014.1
20260506033002 53 261 0.0 0.0 0.00 0.00 0.00 71 1014.2
20260506032502 53 262 0.0 0.0 0.00 0.00 0.00 70 1014.1
20260506032001 54 262 0.0 0.0 0.00 0.00 0.00 70 1014.0
20260506031504 54 262 0.0 0.0 0.00 0.00 0.00 70 1014.0
20260506031059 54 262 0.0 0.0 0.00 0.00 0.00 70 1013.9
20260506030600 54 262 0.0 0.0 0.00 0.00 0.00 70 1013.9
20260506025557 55 261 0.0 0.0 0.00 0.00 0.00 69 1013.6
20260506025055 56 262 0.0 0.0 0.00 0.00 0.00 67 1013.4
20260506024555 56 262 0.0 0.0 0.00 0.00 0.00 67 1013.3
20260506024055 56 261 0.0 1.0 0.00 0.00 0.00 66 1013.3
20260506023556 56 262 0.0 2.0 0.00 0.00 0.00 66 1013.3
20260506023058 57 262 0.0 2.0 0.00 0.00 0.00 65 1013.2
20260506022554 57 262 0.0 2.0 0.00 0.00 0.00 65 1013.2
20260506022054 57 262 0.0 4.0 0.00 0.00 0.00 65 1013.1
20260506021558 57 297 2.0 4.0 0.00 0.00 0.00 64 1013.1
20260506021054 57 267 2.0 4.0 0.00 0.00 0.00 64 1013.0
20260506020554 57 257 1.0 4.0 0.00 0.00 0.00 63 1012.9
20260506020057 58 256 2.0 4.0 0.00 0.00 0.00 63 1012.9
20260506015553 58 267 2.0 4.0 0.00 0.00 0.00 62 1013.0
20260506015055 58 256 2.0 5.0 0.00 0.00 0.00 62 1012.9
20260506014553 58 269 2.0 6.0 0.00 0.00 0.00 63 1013.0
20260506014053 58 270 3.0 6.0 0.00 0.00 0.00 62 1012.9
20260506013552 59 243 1.0 4.0 0.00 0.00 0.00 62 1012.9
20260506013052 58 267 2.0 4.0 0.00 0.00 0.00 62 1012.8
20260506012552 59 255 2.0 5.0 0.00 0.00 0.00 62 1012.8
20260506012052 59 271 3.0 5.0 0.00 0.00 0.00 62 1012.8
20260506011556 59 243 3.0 5.0 0.00 0.00 0.00 60 1012.8
20260506011055 59 255 3.0 5.0 0.00 0.00 0.00 60 1012.8
20260506010551 59 259 3.0 5.0 0.00 0.00 0.00 60 1012.9
20260506010056 59 249 1.0 5.0 0.00 0.00 0.00 60 1012.8
20260506005551 60 271 2.0 5.0 0.00 0.00 0.00 59 1012.9
20260506005051 60 221 0.0 3.0 0.00 0.00 0.00 58 1012.8
20260506004551 60 170 0.0 6.0 0.00 0.00 0.00 57 1012.8
20260506004049 60 217 3.0 6.0 0.00 0.00 0.00 55 1012.8
20260506003549 61 255 2.0 5.0 0.00 0.00 0.00 55 1012.7
20260506003049 60 191 0.0 3.0 0.00 0.00 0.00 56 1012.7
20260506002554 60 130 1.0 5.0 0.00 0.00 0.00 55 1012.7
20260506002049 61 191 0.0 5.0 0.00 0.00 0.00 54 1012.8
20260506001548 62 242 2.0 4.0 0.00 0.00 0.00 56 1012.7
20260506001047 62 259 1.0 7.0 0.00 0.00 0.00 54 1012.6
20260506000545 62 276 3.0 7.0 0.00 0.00 0.00 55 1012.6
20260506000045 61 177 0.0 6.0 0.00 0.00 0.00 55 1012.6
20260505235544 61 158 1.0 6.0 0.00 0.00 0.00 57 1012.6
20260505235045 60 259 2.0 5.0 0.00 0.00 0.00 57 1012.6
20260505234553 60 277 3.0 6.0 0.00 0.00 0.00 58 1012.6
20260505234043 59 278 3.0 6.0 0.00 0.00 0.00 57 1012.6
20260505233543 59 274 3.0 6.0 0.00 0.00 0.00 58 1012.7
20260505233044 59 239 3.0 6.0 0.00 0.00 0.00 58 1012.8
20260505232542 59 231 2.0 6.0 0.00 0.00 0.00 58 1012.8
20260505232045 59 256 3.0 6.0 0.00 0.00 0.00 59 1012.8
20260505231549 59 285 3.0 7.0 0.00 0.00 0.00 58 1012.8
20260505231042 59 186 1.0 6.0 0.00 0.00 0.00 58 1012.9
20260505230543 59 290 2.0 8.0 0.00 0.00 0.00 58 1012.9
20260505230041 59 255 2.0 8.0 0.00 0.00 0.00 59 1012.8
20260505225541 59 267 3.0 8.0 0.00 0.00 0.00 58 1012.9
20260505225041 59 276 5.0 8.0 0.00 0.00 0.00 58 1013.0
20260505224541 59 264 4.0 8.0 0.00 0.00 0.00 58 1013.0
20260505224040 59 279 3.0 6.0 0.00 0.00 0.00 57 1013.0
20260505223540 59 250 2.0 5.0 0.00 0.00 0.00 57 1013.0
20260505223050 59 240 1.0 5.0 0.00 0.00 0.00 57 1013.0
20260505222540 59 259 2.0 5.0 0.00 0.00 0.00 57 1013.1
20260505222040 59 249 3.0 8.0 0.00 0.00 0.00 57 1013.0